Regional Weather Roundup
Issued by NWS

Home | Current Version | Previous Version | Text Only | Print | Product List | Glossary Off
Versions: 1 2 3 4 5 6 7 8 9 10 11 12 13 14 15 16 17 18 19 20 21 22 23 24 25 26 27 28 29 30 31 32 33 34 35 36 37 38 39 40 41 42 43 44 45 46 47 48 49 50

469
ASUS45 KBOI 250810
RWRID

IDAHO REGIONAL WEATHER ROUNDUP
NATIONAL WEATHER SERVICE BOISE ID
200 AM MDT TUE APR 25 2017

NOTE: "FAIR" INDICATES FEW OR NO CLOUDS BELOW 12000 FEET
WITH NO SIGNIFICANT WEATHER AND/OR OBSTRUCTIONS TO VISIBILITY

IDZ012-014-250900-
SOUTHWEST IDAHO


CITY           SKY/WX    TMP DP  RH WIND       PRES   REMARKS
BOISE          CLOUDY    45  40  82 NW16      29.80R
CALDWELL       LGT RAIN  45  40  82 W13       29.82R
MOUNTAIN HOME  CLOUDY    40  40 100 W5        29.80R
$$

IDZ016-017-250900-
SOUTHCENTRAL IDAHO


CITY           SKY/WX    TMP DP  RH WIND       PRES   REMARKS
BURLEY         CLOUDY    40  35  83 W17G24    29.74R WCI  31
JEROME         MOCLDY    40  37  89 SW14      29.76S WCI  32
TWIN FALLS     CLOUDY    39  37  92 SW16      29.77S WCI  30
$$

IDZ019>023-250900-
SOUTHEAST IDAHO


CITY           SKY/WX    TMP DP  RH WIND       PRES   REMARKS
IDAHO FALLS    CLOUDY    39  37  92 SW16      29.69S WCI  30
POCATELLO      CLOUDY    40  37  89 SW20      29.73S WCI  30
REXBURG        CLOUDY    37  37 100 SW13      29.66R WCI  29
$$

IDZ006-010-011-018-031-032-250900-
CENTRAL IDAHO MOUNTAINS


CITY           SKY/WX    TMP DP  RH WIND       PRES   REMARKS
MCCALL         LGT RAIN  34  31  88 CALM      29.75R
HAILEY         MOCLDY    34  30  86 NW6       29.72S WCI  29
STANLEY          N/A     32  30  92 CALM      29.74R
SALMON         CLOUDY    36  34  93 CALM      29.72R
CHALLIS        CLOUDY    39  35  86 CALM      29.71R
$$

IDZ002-004-006-007-026-250900-
NORTHERN IDAHO


CITY           SKY/WX    TMP DP  RH WIND       PRES   REMARKS
LEWISTON       LGT RAIN  49  43  80 W5        29.82R
LOWELL           N/A     46  44  93 NW3       29.81R
COEUR D`ALENE  CLOUDY    42  40  92 SE8       29.79R
MULLAN PASS    FOG       30  30 100 VRB7      29.74R VSB 1   WCI  23
$$




USA.gov is the U.S. government's official web portal to all federal, state and local government web resources and services.